Weather History for Mackinac Island, MI

Change the Weather History Date:

Wednesday, November 14, 2012

  Actual Average Record
Temperature  
Mean Temperature 34 °F -  
Max Temperature 37 °F 40 °F 53 °F (1978)
Min Temperature 32 °F 31 °F 14 °F (1996)
Degree Days  
Heating Degree Days 30    
Moisture  
Dew Point 26 °F    
Average Humidity 69    
Maximum Humidity 79    
Minimum Humidity 64    
Precipitation  
Precipitation 0.00 in - - ()
Sea Level Pressure  
Sea Level Pressure 30.43 in    
Wind  
Wind Speed 10 mph (South)    
Max Wind Speed 14 mph    
Max Gust Speed 22 mph    
Visibility 10 miles    
Events      
Averages and records for this station are not official NWS values.
T = Trace of Precipitation, MM = Missing Value Source: NWS Daily Summary

Daily Weather History Graph

Daily Weather History Graph

Search for Another Location

Airport:

Trip Planner

Search our weather history database for the weather conditions in past years. The results will help you decide how hot, cold, wet, or windy it might be!

Date:

Astronomy

Nov. 14, 2012 Rise Set
Actual Time 7:37 AM EST 5:07 PM EST
Civil Twilight 7:05 AM EST 5:40 PM EST
Nautical Twilight 6:29 AM EST 6:16 PM EST
Astronomical Twilight 5:54 AM EST 6:51 PM EST
Moon 8:29 AM EST (11/14) 5:52 PM EST (11/14)
Length of Visible Light 10h 34m
Length of Day
9h 29m
New Moon, 1% of the Moon is Illuminated
Nov 14
New Moon
Nov 20
First Quarter
Nov 28
Full
Dec 6
Last Quarter
Dec 13
New

Hourly Weather History & Observations

Time (EST) Temp. Windchill Dew Point Humidity Pressure Visibility Wind Dir Wind Speed Gust Speed Precip Events Conditions
12:13 AM 33.8 °F 25.8 °F 24.6 °F 69% 30.45 in 10.0 mi South 10.4 mph 18.4 mph N/A   Clear
12:33 AM 33.8 °F 25.8 °F 24.1 °F 68% 30.45 in 10.0 mi South 10.4 mph 21.9 mph N/A   Scattered Clouds
12:53 AM 33.3 °F 25.7 °F 24.3 °F 70% 30.44 in 10.0 mi South 9.2 mph 20.7 mph N/A   Scattered Clouds
1:13 AM 33.1 °F 23.4 °F 24.3 °F 70% 30.45 in 10.0 mi South 13.8 mph 21.9 mph N/A   Clear
1:33 AM 33.1 °F 24.9 °F 24.4 °F 71% 30.45 in 10.0 mi South 10.4 mph 19.6 mph N/A   Scattered Clouds
1:53 AM 33.1 °F 24.4 °F 24.1 °F 70% 30.45 in 10.0 mi South 11.5 mph 18.4 mph N/A   Clear
2:13 AM 32.9 °F 25.3 °F 23.9 °F 69% 30.45 in 10.0 mi South 9.2 mph 18.4 mph N/A   Clear
2:34 AM 32.9 °F 24.7 °F 23.9 °F 69% 30.45 in 10.0 mi South 10.4 mph 19.6 mph N/A   Clear
2:53 AM 32.4 °F 24.6 °F 23.4 °F 69% 30.46 in 10.0 mi South 9.2 mph 20.7 mph N/A   Clear
3:13 AM 32.9 °F 23.7 °F 23.7 °F 69% 30.46 in 10.0 mi South 12.7 mph 19.6 mph N/A   Clear
3:34 AM 32.9 °F 24.7 °F 24.3 °F 71% 30.46 in 10.0 mi South 10.4 mph 20.7 mph N/A   Clear
3:53 AM 32.9 °F 24.1 °F 23.9 °F 69% 30.46 in 10.0 mi South 11.5 mph 21.9 mph N/A   Scattered Clouds
4:13 AM 32.9 °F 24.1 °F 24.3 °F 71% 30.46 in 10.0 mi South 11.5 mph 20.7 mph N/A   Overcast
4:53 AM 32.9 °F 25.9 °F 24.8 °F 72% 30.45 in 10.0 mi South 8.1 mph 18.4 mph N/A   Scattered Clouds
5:14 AM 33.3 °F 25.1 °F 25.5 °F 73% 30.46 in 10.0 mi South 10.4 mph 19.6 mph N/A   Clear
5:33 AM 33.3 °F 24.1 °F 25.7 °F 74% 30.46 in 10.0 mi South 12.7 mph 18.4 mph N/A   Clear
5:53 AM 33.1 °F 23.9 °F 25.7 °F 74% 30.47 in 10.0 mi South 12.7 mph 19.6 mph N/A   Scattered Clouds
6:14 AM 33.1 °F 24.4 °F 25.7 °F 74% 30.47 in 10.0 mi South 11.5 mph 19.6 mph N/A   Mostly Cloudy
6:33 AM 33.1 °F 24.4 °F 26.1 °F 75% 30.47 in 10.0 mi South 11.5 mph 17.3 mph N/A   Scattered Clouds
6:53 AM 32.9 °F 24.7 °F 26.2 °F 76% 30.47 in 10.0 mi South 10.4 mph 17.3 mph N/A   Scattered Clouds
7:14 AM 32.9 °F 25.9 °F 26.4 °F 77% 30.47 in 10.0 mi South 8.1 mph 17.3 mph N/A   Clear
7:33 AM 32.4 °F 24.6 °F 26.4 °F 79% 30.47 in 10.0 mi South 9.2 mph 18.4 mph N/A   Clear
7:53 AM 32.4 °F 24.0 °F 26.6 °F 79% 30.47 in 10.0 mi South 10.4 mph 16.1 mph N/A   Clear
8:14 AM 32.9 °F 24.7 °F 27.0 °F 79% 30.47 in 10.0 mi South 10.4 mph 17.3 mph N/A   Scattered Clouds
8:33 AM 32.9 °F 24.7 °F 26.8 °F 78% 30.47 in 10.0 mi South 10.4 mph 18.4 mph N/A   Mostly Cloudy
9:13 AM 33.8 °F 24.8 °F 27.1 °F 77% 30.48 in 10.0 mi South 12.7 mph 19.6 mph N/A   Scattered Clouds
9:33 AM 34.3 °F 27.0 °F 27.3 °F 76% 30.48 in 10.0 mi South 9.2 mph 20.7 mph N/A   Scattered Clouds
9:53 AM 34.7 °F 25.9 °F 27.0 °F 73% 30.48 in 10.0 mi South 12.7 mph 18.4 mph N/A   Scattered Clouds
10:13 AM 34.9 °F 26.6 °F 27.1 °F 73% 30.48 in 10.0 mi SSW 11.5 mph 18.4 mph N/A   Scattered Clouds
10:33 AM 35.6 °F 28.0 °F 27.0 °F 71% 30.48 in 10.0 mi South 10.4 mph 17.3 mph N/A   Overcast
10:53 AM 35.6 °F 28.6 °F 26.8 °F 70% 30.48 in 10.0 mi South 9.2 mph 16.1 mph N/A   Overcast
11:13 AM 36.0 °F 29.6 °F 27.1 °F 70% 30.48 in 10.0 mi South 8.1 mph 16.1 mph N/A   Overcast
11:33 AM 36.5 °F 29.2 °F 27.3 °F 69% 30.48 in 10.0 mi South 10.4 mph - N/A   Overcast
11:53 AM 36.5 °F 31.8 °F 27.1 °F 69% 30.47 in 10.0 mi South 5.8 mph - N/A   Overcast
12:13 PM 36.9 °F - 27.5 °F 69% 30.46 in 10.0 mi Calm Calm - N/A   Overcast
12:33 PM 37.0 °F 30.4 °F 27.7 °F 69% 30.46 in 10.0 mi South 9.2 mph - N/A   Overcast
12:53 PM 37.4 °F 30.3 °F 27.5 °F 67% 30.45 in 10.0 mi South 10.4 mph - N/A   Overcast
1:13 PM 37.6 °F 31.0 °F 27.5 °F 67% 30.44 in 10.0 mi SSE 9.2 mph - N/A   Overcast
1:53 PM 37.8 °F 31.3 °F 27.3 °F 66% 30.43 in 10.0 mi SSE 9.2 mph - N/A   Clear
2:13 PM 37.8 °F 31.3 °F 27.3 °F 66% 30.43 in 10.0 mi SSE 9.2 mph - N/A   Clear
2:33 PM 37.8 °F 32.5 °F 27.1 °F 66% 30.43 in 10.0 mi SSE 6.9 mph - N/A   Scattered Clouds
2:53 PM 37.6 °F 30.5 °F 27.3 °F 66% 30.42 in 10.0 mi SSE 10.4 mph 16.1 mph N/A   Mostly Cloudy
3:13 PM 37.6 °F 31.6 °F 27.1 °F 66% 30.42 in 10.0 mi South 8.1 mph - N/A   Mostly Cloudy
3:33 PM 37.8 °F 31.8 °F 27.5 °F 67% 30.42 in 10.0 mi SSE 8.1 mph - N/A   Scattered Clouds
3:53 PM 37.4 °F 30.3 °F 27.1 °F 66% 30.42 in 10.0 mi SSE 10.4 mph - N/A   Clear
4:13 PM 37.4 °F 30.8 °F 27.3 °F 67% 30.41 in 10.0 mi SSE 9.2 mph - N/A   Clear
4:33 PM 37.4 °F 28.9 °F 27.3 °F 67% 30.41 in 10.0 mi SSE 13.8 mph 18.4 mph N/A   Scattered Clouds
4:53 PM 37.4 °F 30.3 °F 27.0 °F 66% 30.41 in 10.0 mi SSE 10.4 mph 18.4 mph N/A   Mostly Cloudy
5:13 PM 37.4 °F 30.8 °F 26.6 °F 65% 30.40 in 10.0 mi SSE 9.2 mph 17.3 mph N/A   Mostly Cloudy
5:33 PM 37.4 °F 28.9 °F 26.6 °F 65% 30.40 in 10.0 mi SSE 13.8 mph 20.7 mph N/A   Overcast
5:53 PM 37.6 °F 31.0 °F 27.0 °F 66% 30.40 in 10.0 mi SSE 9.2 mph 16.1 mph N/A   Mostly Cloudy
6:13 PM 37.8 °F 31.3 °F 27.1 °F 66% 30.40 in 10.0 mi SSE 9.2 mph - N/A   Mostly Cloudy
6:33 PM 37.9 °F 32.1 °F 26.8 °F 64% 30.39 in 10.0 mi South 8.1 mph 18.4 mph N/A   Mostly Cloudy
6:53 PM 37.8 °F 30.2 °F 26.4 °F 64% 30.39 in 10.0 mi SSE 11.5 mph 19.6 mph N/A   Mostly Cloudy
7:13 PM 37.4 °F 30.8 °F 26.4 °F 65% 30.39 in 10.0 mi South 9.2 mph 18.4 mph N/A   Scattered Clouds
7:33 PM 37.4 °F 29.8 °F 26.2 °F 64% 30.39 in 10.0 mi South 11.5 mph 17.3 mph N/A   Clear
7:53 PM 37.2 °F 30.6 °F 26.2 °F 65% 30.39 in 10.0 mi South 9.2 mph 16.1 mph N/A   Scattered Clouds
8:13 PM 36.9 °F 29.6 °F 25.9 °F 64% 30.38 in 10.0 mi South 10.4 mph 18.4 mph N/A   Scattered Clouds
8:34 PM 36.5 °F 29.2 °F 26.1 °F 66% 30.38 in 10.0 mi South 10.4 mph 17.3 mph N/A   Scattered Clouds
8:53 PM 36.5 °F 29.7 °F 25.9 °F 65% 30.38 in 10.0 mi South 9.2 mph 16.1 mph N/A   Mostly Cloudy
9:13 PM 36.0 °F 27.5 °F 25.7 °F 66% 30.38 in 10.0 mi South 12.7 mph 16.1 mph N/A   Scattered Clouds
9:33 PM 35.6 °F 28.6 °F 25.2 °F 66% 30.38 in 10.0 mi South 9.2 mph 17.3 mph N/A   Clear
9:53 PM 35.6 °F 28.0 °F 25.0 °F 65% 30.38 in 10.0 mi South 10.4 mph - N/A   Scattered Clouds
10:13 PM 35.1 °F 27.9 °F 25.2 °F 67% 30.37 in 10.0 mi South 9.2 mph - N/A   Mostly Cloudy
10:34 PM 34.9 °F 28.3 °F 24.8 °F 67% 30.36 in 10.0 mi South 8.1 mph - N/A   Mostly Cloudy
10:53 PM 34.9 °F 28.3 °F 25.3 °F 68% 30.36 in 10.0 mi South 8.1 mph - N/A   Mostly Cloudy
11:13 PM 34.7 °F 26.9 °F 24.8 °F 67% 30.36 in 10.0 mi South 10.4 mph - N/A   Mostly Cloudy
11:34 PM 34.3 °F 28.4 °F 25.2 °F 69% 30.36 in 10.0 mi South 6.9 mph - N/A   Scattered Clouds
11:53 PM 34.0 °F 27.2 °F 25.2 °F 70% 30.36 in 10.0 mi South 8.1 mph - N/A   Mostly Cloudy